#timestamp,LO_Frequency,Hit,StdDev 
1632369615.4,286047003.1,N
1632369635.3,286047005.6,Y
1632369655.1,286047002.9,P
1632369675.8,286047004.1,P
1632369695.7,286047002.5,N
1632369715.5,286046999.9,N
1632369735.4,286047001.2,N
1632369755.2,286047001.2,N
1632369775.0,286046998.2,N
1632369775.9,286046998.2,N
1632369795.8,286047000.7,N
1632369815.6,286046999.8,N
1632369835.4,286047002.1,N
1632369855.3,286047002.5,N
1632369875.1,286047002.0,N
1632369895.9,286047002.6,N
1632369915.7,286047002.3,N
1632369935.5,286047002.8,N
1632369955.4,286047001.8,N
1632369975.2,286047003.7,N
1632369995.1,286047002.1,N
1632369996.0,286047002.1,N
1632370015.8,286047002.6,N
1632370035.6,286047000.0,N
1632370055.5,286047000.0,N
1632370075.3,286047002.8,N
1632370095.2,286047000.1,N
1632370115.9,286046999.7,N
1632370135.7,286047002.4,N
1632370155.6,286047002.6,N
1632370175.4,286047000.1,N
1632370195.2,286046999.8,N
1632370215.1,286047000.6,N
1632370216.0,286047000.6,N
1632370235.8,286046998.1,N
1632370255.7,286046999.8,N
1632370275.5,286047001.2,N
1632370295.3,286046998.2,N
1632370315.2,286046998.1,N
1632370335.0,286047000.4,N
1632370335.9,286047000.4,N
1632370355.7,286047000.9,N
1632370375.6,286047001.0,N
1632370395.4,286046998.5,N
1632370415.3,286046999.1,N
1632370435.1,286046998.9,N
1632370436.0,286046998.9,N
1632370455.8,286047000.7,N
1632370475.7,286046998.5,N
1632370495.5,286046998.1,N
1632370515.4,286046998.1,N
1632370535.2,286047000.1,N
1632370555.0,286046999.7,N
1632370555.9,286046999.7,N
1632370575.8,286047000.3,N
1632370595.6,286046998.1,N
1632370615.4,286046998.4,N
1632370635.3,286047001.2,N
1632370655.1,286046998.1,N
1632370675.9,286047000.4,N
1632370695.7,286047000.6,N
1632370715.5,286047000.9,N
1632370735.4,286047001.0,N
1632370755.2,286047000.2,N
1632370775.0,286046998.4,N
1632370775.9,286046998.4,N
1632370795.8,286046998.4,N
1632370815.6,286047001.2,N
1632370835.5,286047000.7,N
1632370855.3,286047000.4,N
1632370875.2,286047000.3,N
1632370895.9,286047000.5,N
1632370915.7,286047000.6,N
1632370935.6,286047000.5,N
1632370955.4,286047000.2,N
1632370975.2,286047002.3,N
1632370997.9,286047000.7,N
1632371015.1,286047000.1,N
1632371016.0,286047000.1,N
1632371035.8,286046999.7,N
1632371055.6,286046999.9,N
1632371075.5,286047002.1,N
1632371095.3,286047001.9,N
1632371115.2,286047001.7,N
1632371135.9,286047004.3,Y
1632371155.7,286047002.5,P
1632371175.6,286047002.6,N
1632371195.4,286047000.3,N
1632371215.3,286046999.9,N
1632371235.1,286047000.4,N
1632371236.0,286047000.4,N
1632371255.8,286047001.6,N
1632371275.7,286047002.3,N
1632371295.5,286047002.2,N
1632371315.3,286047001.6,N
1632371335.2,286047002.3,N
1632371355.0,286047001.6,N
1632371355.9,286047001.6,N
1632371375.8,286047001.9,N
1632371395.6,286047003.8,Y
1632371415.4,286047000.4,P
1632371435.3,286047002.5,P
1632371455.1,286046999.7,N
1632371475.9,286046998.1,N
1632371495.7,286046999.6,N
1632371515.5,286046997.1,N
1632371535.4,286046997.9,N
1632371555.2,286046997.8,N
1632371575.0,286046995.0,N
1632371575.9,286046995.0,N
1632371595.8,286046997.9,N
1632371615.6,286046997.2,N
1632371635.5,286046999.5,N
1632371655.3,286046998.5,N
1632371675.1,286047000.7,N
1632371695.9,286047001.9,N
1632371715.7,286047000.3,N
1632371735.5,286047002.0,N
1632371755.4,286047000.5,N
1632371775.2,286046998.4,N
1632371795.1,286046998.5,N
1632371796.0,286046998.5,N
1632371815.8,286047001.0,N
1632371835.6,286047004.3,N
1632371855.5,286047002.7,N
1632371875.3,286047002.1,N
1632371895.1,286047000.5,N
1632371915.9,286047002.3,N
1632371935.7,286047002.1,N
1632371955.6,286047004.2,N
1632371975.4,286047005.5,N
1632371995.2,286047005.7,N
1632372015.1,286047003.2,N
1632372016.0,286047003.2,N
1632372035.8,286047001.5,N
1632372055.6,286047002.5,N
1632372075.5,286047000.5,N
1632372095.3,286047001.1,N
1632372115.2,286046999.0,N
1632372135.9,286046998.3,N
1632372155.7,286046998.3,N
1632372175.6,286046998.9,N
1632372195.4,286046998.5,N
1632372215.2,286046999.0,N
1632372235.1,286046998.1,N
1632372236.0,286046998.1,N
1632372255.8,286047000.5,N
1632372275.7,286046998.4,N
1632372295.5,286046998.3,N
1632372315.4,286046999.2,N
1632372335.2,286046998.9,N
1632372355.0,286046998.7,N
1632372355.9,286046998.7,N
1632372375.8,286047000.7,N
1632372395.6,286047000.3,N
1632372415.4,286047000.1,N
1632372435.3,286047001.6,N
1632372455.1,286047000.0,N
1632372475.9,286047002.4,N
1632372495.7,286047001.8,N
1632372515.5,286047004.0,N
1632372535.4,286047005.6,N
1632372555.2,286047002.9,N
1632372575.1,286047003.1,N
1632372576.0,286047003.1,N
1632372595.8,286047004.3,N
1632372615.6,286047004.0,N
1632372635.5,286047002.2,N
1632372655.3,286046999.7,N
1632372675.1,286046999.8,N
1632372695.9,286047002.2,N
1632372715.7,286047002.0,N
1632372735.6,286047000.6,N
1632372755.4,286046999.9,N
1632372775.2,286047002.5,N
1632372795.1,286047001.7,N
1632372796.0,286047001.7,N
1632372815.8,286047001.7,N
1632372835.6,286047002.8,N
1632372855.5,286047000.5,N
1632372875.3,286046999.7,N
1632372895.2,286046999.8,N
1632372915.9,286047002.6,N
1632372935.7,286047000.4,N
1632372955.6,286046999.8,N
1632372975.4,286047002.0,N
1632372995.3,286046998.1,N
1632373015.1,286047000.7,N
1632373016.0,286047000.7,N
1632373035.8,286047000.7,N
1632373055.7,286047002.7,N
1632373075.5,286047000.3,N
1632373095.3,286047001.1,N
1632373115.2,286047000.8,N
1632373135.0,286047000.4,N
1632373135.9,286047000.4,N
1632373155.8,286047002.7,N
1632373175.6,286047001.9,N
1632373195.5,286047001.6,N
